Darstellungsparameter: Aktuell verwendete Einstellungen:
Skalierung der Graphiken ... ?
xyx+y,   Skalierungsfaktor:      Skalierung: Modus: x, Faktor: 1
Darstellungszeitraum ... ?
Vom - - bis: - -   Zeitraum: 23.09.2010 - 22.10.2010
Min/Max/Avg-Anzeige ... ?
Zeige MMA aktuell
Zeige MMA Monat
Zeige MMA alles
Zeige --A aktuell
Zeige --A Monat
Zeige --A alles
Keine MMA-Anzeige
MMA:
Average (ber die Originaldaten)
MMA-Basis: 23.09.2010 - 22.10.2010
Quicknavigation für Darstellung... ?
Tage:      1T, 2T, 3T, 5T -1T -2T -3T -5T +1T +2T +3T +5T
Wochen: 1W, 2W, 3W -1W -2W -3W +1W +2W +3W
Monate: 1M, 3M, 6M -1M -3M -6M +1M +3M +6M
Jahre:    1J, 3J, 5J, 10J -1J -3J -5J -10J +1J +3J +5J +10J
Nutze für die Darstellung ... ?
Originaldaten oder ...
Mittelwerte Minima Maxima auf...
Stundenbasis Tagesbasis Wochenbasis
Monatsbasis Jahresbasis      Datenbasis: Mittelwerte auf Stundenbasis
Darstellen als:
Statistik (Auto) Statistik J:M      Darstellung:
Zur Graphik,    zurück zur Übersicht aller Sensoren.
 
Tabellarische Datenbersicht: ?
 
Sensor: Nr:Datum:Temp:Abs-Feuchte:Windchill:Wind:
Aussen-T/F 1 23-09-2010 00:00:00 14.02 C 8.65 g/m*3 14.02 C 0 km/h
2 23-09-2010 01:00:00 13.22 C 8.71 g/m*3 13.22 C 0 km/h
3 23-09-2010 02:00:00 12.44 C 8.7 g/m*3 12.44 C 0 km/h
4 23-09-2010 03:00:00 11.8 C 8.57 g/m*3 11.8 C 0 km/h
5 23-09-2010 04:00:00 11.16 C 8.39 g/m*3 11.16 C 0 km/h
6 23-09-2010 05:00:00 10.64 C 8.22 g/m*3 10.64 C 0 km/h
7 23-09-2010 06:00:00 10.46 C 8.2 g/m*3 10.46 C 0 km/h
8 23-09-2010 07:00:00 10.52 C 8.25 g/m*3 10.52 C 0 km/h
9 23-09-2010 08:00:00 10.88 C 8.42 g/m*3 10.88 C 0 km/h
10 23-09-2010 09:00:00 11.64 C 8.65 g/m*3 11.64 C 0 km/h
11 23-09-2010 10:00:00 12.98 C 9.24 g/m*3 12.98 C 0 km/h
12 23-09-2010 11:00:00 15.64 C 10.08 g/m*3 15.64 C 0 km/h
13 23-09-2010 12:00:00 18.66 C 10.61 g/m*3 18.66 C 0 km/h
14 23-09-2010 13:00:00 22.3 C 10.7 g/m*3 22.3 C 0 km/h
15 23-09-2010 14:00:00 24.06 C 10.22 g/m*3 24.06 C 0 km/h
16 23-09-2010 15:00:00 25.04 C 9.37 g/m*3 25.04 C 0 km/h
17 23-09-2010 16:00:00 25.14 C 9.88 g/m*3 25.14 C 0 km/h
18 23-09-2010 17:00:00 23.48 C 10.73 g/m*3 23.48 C 0 km/h
19 23-09-2010 18:00:00 22.12 C 10.63 g/m*3 22.12 C 0 km/h
20 23-09-2010 19:00:00 19.9 C 11.06 g/m*3 19.9 C 0 km/h
21 23-09-2010 20:00:00 18.5 C 11.3 g/m*3 18.5 C 0 km/h
22 23-09-2010 21:00:00 18.5 C 11.49 g/m*3 18.5 C 0 km/h
23 23-09-2010 22:00:00 17.94 C 11.82 g/m*3 17.94 C 0 km/h
24 23-09-2010 23:00:00 16.44 C 12.26 g/m*3 16.44 C 0 km/h
25 24-09-2010 00:00:00 15.7 C 12.18 g/m*3 15.7 C 0 km/h
Sensor: Nr:Datum:Temp:Abs-Feuchte:Windchill:Wind:
Aussen-T/F 26 24-09-2010 01:00:00 15.54 C 12.3 g/m*3 15.54 C 0 km/h
27 24-09-2010 02:00:00 15.38 C 12.15 g/m*3 15.38 C 0 km/h
28 24-09-2010 03:00:00 14.94 C 11.91 g/m*3 14.94 C 0 km/h
29 24-09-2010 04:00:00 14.78 C 11.89 g/m*3 14.78 C 0 km/h
30 24-09-2010 05:00:00 14.54 C 11.72 g/m*3 14.54 C 0 km/h
31 24-09-2010 06:00:00 14.7 C 11.83 g/m*3 14.7 C 0 km/h
32 24-09-2010 07:00:00 14.4 C 11.62 g/m*3 14.4 C 0 km/h
33 24-09-2010 08:00:00 14.58 C 11.82 g/m*3 14.58 C 0 km/h
34 24-09-2010 09:00:00 14.88 C 12.07 g/m*3 14.88 C 0 km/h
35 24-09-2010 10:00:00 14.98 C 12.06 g/m*3 14.98 C 0 km/h
36 24-09-2010 11:00:00 15.22 C 12.22 g/m*3 15.22 C 0 km/h
37 24-09-2010 12:00:00 15.14 C 12.18 g/m*3 15.14 C 0 km/h
38 24-09-2010 13:00:00 14.56 C 11.73 g/m*3 14.56 C 0 km/h
39 24-09-2010 14:00:00 13.54 C 11.02 g/m*3 13.54 C 0 km/h
40 24-09-2010 15:00:00 13.08 C 10.8 g/m*3 13.08 C 0 km/h
41 24-09-2010 16:00:00 13.8 C 11.32 g/m*3 13.8 C 0 km/h
42 24-09-2010 17:00:00 13.48 C 11.03 g/m*3 13.48 C 0 km/h
43 24-09-2010 18:00:00 13.26 C 10.83 g/m*3 13.26 C 0 km/h
44 24-09-2010 19:00:00 12.84 C 10.64 g/m*3 12.84 C 0 km/h
45 24-09-2010 20:00:00 12.7 C 10.58 g/m*3 12.7 C 0 km/h
46 24-09-2010 21:00:00 12.82 C 10.65 g/m*3 12.82 C 0 km/h
47 24-09-2010 22:00:00 12.7 C 10.58 g/m*3 12.7 C 0 km/h
48 24-09-2010 23:00:00 12.4 C 10.38 g/m*3 12.4 C 0 km/h
49 25-09-2010 00:00:00 12.48 C 10.43 g/m*3 12.48 C 0 km/h
50 25-09-2010 01:00:00 12.52 C 10.46 g/m*3 12.52 C 0 km/h
Sensor: Nr:Datum:Temp:Abs-Feuchte:Windchill:Wind:
Aussen-T/F 51 25-09-2010 02:00:00 12.6 C 10.51 g/m*3 12.6 C 0 km/h
52 25-09-2010 03:00:00 12.62 C 10.52 g/m*3 12.62 C 0 km/h
53 25-09-2010 04:00:00 12.54 C 10.47 g/m*3 12.54 C 0 km/h
54 25-09-2010 05:00:00 12.38 C 10.35 g/m*3 12.38 C 0 km/h
55 25-09-2010 06:00:00 12.06 C 10.06 g/m*3 12.06 C 0 km/h
56 25-09-2010 07:00:00 11.88 C 9.94 g/m*3 11.88 C 0 km/h
57 25-09-2010 08:00:00 11.26 C 9.5 g/m*3 11.26 C 0 km/h
58 25-09-2010 09:00:00 10.48 C 8.81 g/m*3 10.48 C 0 km/h
59 25-09-2010 10:00:00 11.04 C 8.25 g/m*3 11.04 C 0 km/h
60 25-09-2010 11:00:00 12.3 C 7.45 g/m*3 12.3 C 0 km/h
61 25-09-2010 12:00:00 12.44 C 6.9 g/m*3 12.44 C 0 km/h
62 25-09-2010 13:00:00 13.26 C 6.04 g/m*3 13.26 C 0 km/h
63 25-09-2010 14:00:00 14.24 C 5.36 g/m*3 14.24 C 0 km/h
64 25-09-2010 15:00:00 15.04 C 4.68 g/m*3 15.04 C 0 km/h
65 25-09-2010 16:00:00 14.72 C 4.97 g/m*3 14.72 C 0 km/h
66 25-09-2010 17:00:00 15.6 C 5.08 g/m*3 15.6 C 0 km/h
67 25-09-2010 18:00:00 14.22 C 5.06 g/m*3 14.22 C 0 km/h
68 25-09-2010 19:00:00 12.98 C 5.75 g/m*3 12.98 C 0 km/h
69 25-09-2010 20:00:00 11.7 C 5.88 g/m*3 11.7 C 0 km/h
70 25-09-2010 21:00:00 10.12 C 6.31 g/m*3 10.12 C 0 km/h
71 25-09-2010 22:00:00 10.28 C 6.68 g/m*3 10.28 C 0 km/h
72 25-09-2010 23:00:00 9.28 C 7.4 g/m*3 9.28 C 0 km/h
73 26-09-2010 00:00:00 9.44 C 7.76 g/m*3 9.44 C 0 km/h
74 26-09-2010 01:00:00 9.48 C 7.24 g/m*3 9.48 C 0 km/h
75 26-09-2010 02:00:00 9.42 C 7.05 g/m*3 9.42 C 0 km/h
Sensor: Nr:Datum:Temp:Abs-Feuchte:Windchill:Wind:
Aussen-T/F 76 26-09-2010 03:00:00 9.2 C 7.07 g/m*3 9.2 C 0 km/h
77 26-09-2010 04:00:00 8.88 C 7.28 g/m*3 8.88 C 0 km/h
78 26-09-2010 05:00:00 9.02 C 7.33 g/m*3 9.02 C 0 km/h
79 26-09-2010 06:00:00 8.9 C 7.38 g/m*3 8.9 C 0 km/h
80 26-09-2010 07:00:00 8.8 C 7.45 g/m*3 8.8 C 0 km/h
81 26-09-2010 08:00:00 9.62 C 7.3 g/m*3 9.62 C 0 km/h
82 26-09-2010 09:00:00 10.26 C 7.18 g/m*3 10.26 C 0 km/h
83 26-09-2010 10:00:00 11.84 C 6.75 g/m*3 11.84 C 0 km/h
84 26-09-2010 11:00:00 13.22 C 6.44 g/m*3 13.22 C 0 km/h
85 26-09-2010 12:00:00 14.48 C 6.39 g/m*3 14.48 C 0 km/h
86 26-09-2010 13:00:00 13 C 7.58 g/m*3 13 C 0 km/h
87 26-09-2010 14:00:00 13.3 C 8.3 g/m*3 13.3 C 0 km/h
88 26-09-2010 15:00:00 14.18 C 8.12 g/m*3 14.18 C 0 km/h
89 26-09-2010 16:00:00 14.92 C 7.04 g/m*3 14.92 C 0 km/h
90 26-09-2010 17:00:00 15.18 C 6.61 g/m*3 15.18 C 0 km/h
91 26-09-2010 18:00:00 12.96 C 6.95 g/m*3 12.96 C 0 km/h
92 26-09-2010 19:00:00 12.24 C 7.1 g/m*3 12.24 C 0 km/h
93 26-09-2010 20:00:00 11.78 C 7.21 g/m*3 11.78 C 0 km/h
94 26-09-2010 21:00:00 11.16 C 7.12 g/m*3 11.16 C 0 km/h
95 26-09-2010 22:00:00 9.7 C 7.06 g/m*3 9.7 C 0 km/h
96 26-09-2010 23:00:00 8.84 C 7.17 g/m*3 8.84 C 0 km/h
97 27-09-2010 00:00:00 8.12 C 7.07 g/m*3 8.12 C 0 km/h
98 27-09-2010 01:00:00 7.46 C 7.04 g/m*3 7.46 C 0 km/h
99 27-09-2010 02:00:00 6.84 C 6.86 g/m*3 6.84 C 0 km/h
100 27-09-2010 03:00:00 6.46 C 6.75 g/m*3 6.46 C 0 km/h
Sensor: Nr:Datum:Temp:Abs-Feuchte:Windchill:Wind:
Aussen-T/F 101 27-09-2010 04:00:00 6.24 C 6.8 g/m*3 6.24 C 0 km/h
102 27-09-2010 05:00:00 6.24 C 6.83 g/m*3 6.24 C 0 km/h
103 27-09-2010 06:00:00 6.32 C 6.89 g/m*3 6.32 C 0 km/h
104 27-09-2010 07:00:00 6.74 C 7.13 g/m*3 6.74 C 0 km/h
105 27-09-2010 08:00:00 7.7 C 7.61 g/m*3 7.7 C 0 km/h
106 27-09-2010 09:00:00 9.24 C 8.2 g/m*3 9.24 C 0 km/h
107 27-09-2010 10:00:00 10.76 C 7.57 g/m*3 10.76 C 0 km/h
108 27-09-2010 11:00:00 11.98 C 6.79 g/m*3 11.98 C 0 km/h
109 27-09-2010 12:00:00 12.78 C 6.82 g/m*3 12.78 C 0 km/h
110 27-09-2010 13:00:00 13.48 C 6.73 g/m*3 13.48 C 0 km/h
111 27-09-2010 14:00:00 13.26 C 6.66 g/m*3 13.26 C 0 km/h
112 27-09-2010 15:00:00 13.4 C 6.65 g/m*3 13.4 C 0 km/h
113 27-09-2010 16:00:00 13.38 C 7.2 g/m*3 13.38 C 0 km/h
114 27-09-2010 17:00:00 12.9 C 7.69 g/m*3 12.9 C 0 km/h
115 27-09-2010 18:00:00 11.94 C 7.73 g/m*3 11.94 C 0 km/h
116 27-09-2010 19:00:00 10.58 C 8.13 g/m*3 10.58 C 0 km/h
117 27-09-2010 20:00:00 10.3 C 8.39 g/m*3 10.3 C 0 km/h
118 27-09-2010 21:00:00 10.34 C 8.55 g/m*3 10.34 C 0 km/h
119 27-09-2010 22:00:00 10.3 C 8.6 g/m*3 10.3 C 0 km/h
120 27-09-2010 23:00:00 10.16 C 8.64 g/m*3 10.16 C 0 km/h
121 28-09-2010 00:00:00 10 C 8.68 g/m*3 10 C 0 km/h
122 28-09-2010 01:00:00 9.98 C 8.75 g/m*3 9.98 C 0 km/h
123 28-09-2010 02:00:00 9.9 C 8.78 g/m*3 9.9 C 0 km/h
124 28-09-2010 03:00:00 9.9 C 8.87 g/m*3 9.9 C 0 km/h
125 28-09-2010 04:00:00 9.92 C 8.86 g/m*3 9.92 C 0 km/h
Sensor: Nr:Datum:Temp:Abs-Feuchte:Windchill:Wind:
Aussen-T/F 126 28-09-2010 05:00:00 10 C 8.93 g/m*3 10 C 0 km/h
127 28-09-2010 06:00:00 10.08 C 8.97 g/m*3 10.08 C 0 km/h
128 28-09-2010 07:00:00 10 C 8.93 g/m*3 10 C 0 km/h
129 28-09-2010 08:00:00 10.04 C 8.95 g/m*3 10.04 C 0 km/h
130 28-09-2010 09:00:00 10.24 C 9.06 g/m*3 10.24 C 0 km/h
131 28-09-2010 10:00:00 10.58 C 9.26 g/m*3 10.58 C 0 km/h
132 28-09-2010 11:00:00 11.18 C 9.62 g/m*3 11.18 C 0 km/h
133 28-09-2010 12:00:00 11.48 C 9.72 g/m*3 11.48 C 0 km/h
134 28-09-2010 13:00:00 11.74 C 9.71 g/m*3 11.74 C 0 km/h
135 28-09-2010 14:00:00 11.76 C 9.66 g/m*3 11.76 C 0 km/h
136 28-09-2010 15:00:00 11.74 C 9.73 g/m*3 11.74 C 0 km/h
137 28-09-2010 16:00:00 11.84 C 9.85 g/m*3 11.84 C 0 km/h
138 28-09-2010 17:00:00 11.98 C 10.01 g/m*3 11.98 C 0 km/h
139 28-09-2010 18:00:00 11.86 C 9.99 g/m*3 11.86 C 0 km/h
140 28-09-2010 19:00:00 11.72 C 9.95 g/m*3 11.72 C 0 km/h
141 28-09-2010 20:00:00 11.6 C 9.87 g/m*3 11.6 C 0 km/h
142 28-09-2010 21:00:00 11.58 C 9.86 g/m*3 11.58 C 0 km/h
143 28-09-2010 22:00:00 11.62 C 9.89 g/m*3 11.62 C 0 km/h
144 28-09-2010 23:00:00 11.6 C 9.87 g/m*3 11.6 C 0 km/h
145 29-09-2010 00:00:00 11.64 C 9.9 g/m*3 11.64 C 0 km/h
146 29-09-2010 01:00:00 11.62 C 9.89 g/m*3 11.62 C 0 km/h
147 29-09-2010 02:00:00 11.56 C 9.85 g/m*3 11.56 C 0 km/h
148 29-09-2010 03:00:00 11.48 C 9.8 g/m*3 11.48 C 0 km/h
149 29-09-2010 04:00:00 11.48 C 9.8 g/m*3 11.48 C 0 km/h
150 29-09-2010 05:00:00 11.4 C 9.75 g/m*3 11.4 C 0 km/h
Sensor: Nr:Datum:Temp:Abs-Feuchte:Windchill:Wind:
Aussen-T/F 151 29-09-2010 06:00:00 11.52 C 9.82 g/m*3 11.52 C 0 km/h
152 29-09-2010 07:00:00 11.04 C 9.53 g/m*3 11.04 C 0 km/h
153 29-09-2010 08:00:00 11.18 C 9.62 g/m*3 11.18 C 0 km/h
154 29-09-2010 09:00:00 11.44 C 9.57 g/m*3 11.44 C 0 km/h
155 29-09-2010 10:00:00 12.92 C 8.98 g/m*3 12.92 C 0 km/h
156 29-09-2010 11:00:00 13.96 C 8.42 g/m*3 13.96 C 0 km/h
157 29-09-2010 12:00:00 14.4 C 8.03 g/m*3 14.4 C 0 km/h
158 29-09-2010 13:00:00 15.74 C 7.89 g/m*3 15.74 C 0 km/h
159 29-09-2010 14:00:00 16.82 C 7.64 g/m*3 16.82 C 0 km/h
160 29-09-2010 15:00:00 19.16 C 6.88 g/m*3 19.16 C 0 km/h
161 29-09-2010 16:00:00 18.14 C 7.62 g/m*3 18.14 C 0 km/h
162 29-09-2010 17:00:00 18.3 C 7.54 g/m*3 18.3 C 0 km/h
163 29-09-2010 18:00:00 14.62 C 7.84 g/m*3 14.62 C 0 km/h
164 29-09-2010 19:00:00 13.08 C 7.68 g/m*3 13.08 C 0 km/h
165 29-09-2010 20:00:00 13.12 C 7.7 g/m*3 13.12 C 0 km/h
166 29-09-2010 21:00:00 12.5 C 7.94 g/m*3 12.5 C 0 km/h
167 29-09-2010 22:00:00 12.38 C 8.36 g/m*3 12.38 C 0 km/h
168 29-09-2010 23:00:00 11.96 C 8.33 g/m*3 11.96 C 0 km/h
169 30-09-2010 00:00:00 12.16 C 8.44 g/m*3 12.16 C 0 km/h
170 30-09-2010 01:00:00 11.86 C 7.75 g/m*3 11.86 C 0 km/h
171 30-09-2010 02:00:00 11.46 C 7.62 g/m*3 11.46 C 0 km/h
172 30-09-2010 03:00:00 11.16 C 7.87 g/m*3 11.16 C 0 km/h
173 30-09-2010 04:00:00 11.02 C 7.88 g/m*3 11.02 C 0 km/h
174 30-09-2010 05:00:00 10.76 C 7.79 g/m*3 10.76 C 0 km/h
175 30-09-2010 06:00:00 10.7 C 7.33 g/m*3 10.7 C 0 km/h
Sensor: Nr:Datum:Temp:Abs-Feuchte:Windchill:Wind:
Aussen-T/F 176 30-09-2010 07:00:00 10.66 C 7.66 g/m*3 10.66 C 0 km/h
177 30-09-2010 08:00:00 10.9 C 7.76 g/m*3 10.9 C 0 km/h
178 30-09-2010 09:00:00 11.4 C 7.86 g/m*3 11.4 C 0 km/h
179 30-09-2010 10:00:00 11.64 C 8.27 g/m*3 11.64 C 0 km/h
180 30-09-2010 11:00:00 11.86 C 8.47 g/m*3 11.86 C 0 km/h
181 30-09-2010 12:00:00 11.98 C 8.94 g/m*3 11.98 C 0 km/h
182 30-09-2010 13:00:00 12.58 C 9.55 g/m*3 12.58 C 0 km/h
183 30-09-2010 14:00:00 12.94 C 9.9 g/m*3 12.94 C 0 km/h
184 30-09-2010 15:00:00 13.26 C 10.12 g/m*3 13.26 C 0 km/h
185 30-09-2010 16:00:00 13.4 C 10.16 g/m*3 13.4 C 0 km/h
186 30-09-2010 17:00:00 12.96 C 9.98 g/m*3 12.96 C 0 km/h
187 30-09-2010 18:00:00 12.48 C 9.82 g/m*3 12.48 C 0 km/h
188 30-09-2010 19:00:00 12.14 C 9.78 g/m*3 12.14 C 0 km/h
189 30-09-2010 20:00:00 12.16 C 9.92 g/m*3 12.16 C 0 km/h
190 30-09-2010 21:00:00 12.08 C 9.96 g/m*3 12.08 C 0 km/h
191 30-09-2010 22:00:00 11.96 C 9.93 g/m*3 11.96 C 0 km/h
192 30-09-2010 23:00:00 12 C 10 g/m*3 12 C 0 km/h
193 01-10-2010 00:00:00 12.02 C 10.05 g/m*3 12.02 C 0 km/h
194 01-10-2010 01:00:00 11.58 C 9.86 g/m*3 11.58 C 0 km/h
195 01-10-2010 02:00:00 11.44 C 9.78 g/m*3 11.44 C 0 km/h
196 01-10-2010 03:00:00 11.56 C 9.85 g/m*3 11.56 C 0 km/h
197 01-10-2010 04:00:00 11.7 C 9.94 g/m*3 11.7 C 0 km/h
198 01-10-2010 05:00:00 11.62 C 9.89 g/m*3 11.62 C 0 km/h
199 01-10-2010 06:00:00 11.4 C 9.75 g/m*3 11.4 C 0 km/h
200 01-10-2010 07:00:00 11 C 9.51 g/m*3 11 C 0 km/h
Sensor: Nr:Datum:Temp:Abs-Feuchte:Windchill:Wind:
Aussen-T/F 201 01-10-2010 08:00:00 10.3 C 9.1 g/m*3 10.3 C 0 km/h
202 01-10-2010 09:00:00 11.24 C 9.65 g/m*3 11.24 C 0 km/h
203 01-10-2010 10:00:00 11.72 C 9.63 g/m*3 11.72 C 0 km/h
204 01-10-2010 11:00:00 12.46 C 8.84 g/m*3 12.46 C 0 km/h
205 01-10-2010 12:00:00 12.68 C 8.49 g/m*3 12.68 C 0 km/h
206 01-10-2010 13:00:00 13.18 C 8.12 g/m*3 13.18 C 0 km/h
207 01-10-2010 14:00:00 13.32 C 7.94 g/m*3 13.32 C 0 km/h
208 01-10-2010 15:00:00 15.3 C 7.78 g/m*3 15.3 C 0 km/h
209 01-10-2010 16:00:00 16.74 C 7.61 g/m*3 16.74 C 0 km/h
210 01-10-2010 17:00:00 16.14 C 8.35 g/m*3 16.14 C 0 km/h
211 01-10-2010 18:00:00 14.34 C 8.79 g/m*3 14.34 C 0 km/h
212 01-10-2010 19:00:00 12.18 C 8.56 g/m*3 12.18 C 0 km/h
213 01-10-2010 20:00:00 11.26 C 8.51 g/m*3 11.26 C 0 km/h
214 01-10-2010 21:00:00 10.86 C 8.53 g/m*3 10.86 C 0 km/h
215 01-10-2010 22:00:00 10.98 C 8.76 g/m*3 10.98 C 0 km/h
216 01-10-2010 23:00:00 11.06 C 8.74 g/m*3 11.06 C 0 km/h
217 02-10-2010 00:00:00 11.12 C 8.71 g/m*3 11.12 C 0 km/h
218 02-10-2010 01:00:00 10.92 C 8.74 g/m*3 10.92 C 0 km/h
219 02-10-2010 02:00:00 10.96 C 8.97 g/m*3 10.96 C 0 km/h
220 02-10-2010 03:00:00 11.1 C 9.15 g/m*3 11.1 C 0 km/h
221 02-10-2010 04:00:00 11.08 C 9.26 g/m*3 11.08 C 0 km/h
222 02-10-2010 05:00:00 10.98 C 9.3 g/m*3 10.98 C 0 km/h
223 02-10-2010 06:00:00 11 C 9.39 g/m*3 11 C 0 km/h
224 02-10-2010 07:00:00 11.14 C 9.55 g/m*3 11.14 C 0 km/h
225 02-10-2010 08:00:00 11.46 C 9.79 g/m*3 11.46 C 0 km/h
Sensor: Nr:Datum:Temp:Abs-Feuchte:Windchill:Wind:
Aussen-T/F 226 02-10-2010 09:00:00 12 C 10.12 g/m*3 12 C 0 km/h
227 02-10-2010 10:00:00 13.14 C 10.75 g/m*3 13.14 C 0 km/h
228 02-10-2010 11:00:00 14.32 C 11.27 g/m*3 14.32 C 0 km/h
229 02-10-2010 12:00:00 15.04 C 11.52 g/m*3 15.04 C 0 km/h
230 02-10-2010 13:00:00 15.74 C 11.53 g/m*3 15.74 C 0 km/h
231 02-10-2010 14:00:00 15.64 C 11.41 g/m*3 15.64 C 0 km/h
232 02-10-2010 15:00:00 16 C 11.47 g/m*3 16 C 0 km/h
233 02-10-2010 16:00:00 16.24 C 11.09 g/m*3 16.24 C 0 km/h
234 02-10-2010 17:00:00 16.28 C 10.92 g/m*3 16.28 C 0 km/h
235 02-10-2010 18:00:00 15.42 C 10.92 g/m*3 15.42 C 0 km/h
236 02-10-2010 19:00:00 14.94 C 10.94 g/m*3 14.94 C 0 km/h
237 02-10-2010 20:00:00 14.8 C 11.1 g/m*3 14.8 C 0 km/h
238 02-10-2010 21:00:00 14.5 C 11.02 g/m*3 14.5 C 0 km/h
239 02-10-2010 22:00:00 14.48 C 11.16 g/m*3 14.48 C 0 km/h
240 02-10-2010 23:00:00 14.56 C 11.13 g/m*3 14.56 C 0 km/h
241 03-10-2010 00:00:00 14.44 C 11.08 g/m*3 14.44 C 0 km/h
242 03-10-2010 01:00:00 14.7 C 10.7 g/m*3 14.7 C 0 km/h
243 03-10-2010 02:00:00 14.58 C 10.32 g/m*3 14.58 C 0 km/h
244 03-10-2010 03:00:00 13.92 C 10.59 g/m*3 13.92 C 0 km/h
245 03-10-2010 04:00:00 14.08 C 10.62 g/m*3 14.08 C 0 km/h
246 03-10-2010 05:00:00 14.26 C 10.34 g/m*3 14.26 C 0 km/h
247 03-10-2010 06:00:00 13.46 C 10.24 g/m*3 13.46 C 0 km/h
248 03-10-2010 07:00:00 13.42 C 10.43 g/m*3 13.42 C 0 km/h
249 03-10-2010 08:00:00 13.98 C 10.41 g/m*3 13.98 C 0 km/h
250 03-10-2010 09:00:00 15.12 C 10.08 g/m*3 15.12 C 0 km/h
Sensor: Nr:Datum:Temp:Abs-Feuchte:Windchill:Wind:
Aussen-T/F 251 03-10-2010 10:00:00 16.78 C 9.91 g/m*3 16.78 C 0 km/h
252 03-10-2010 11:00:00 18.14 C 10.13 g/m*3 18.14 C 0 km/h
253 03-10-2010 12:00:00 19.68 C 9.74 g/m*3 19.68 C 0 km/h
254 03-10-2010 13:00:00 21.36 C 9.43 g/m*3 21.36 C 0 km/h
255 03-10-2010 14:00:00 23.34 C 9.09 g/m*3 23.34 C 0 km/h
256 03-10-2010 15:00:00 24.72 C 8.61 g/m*3 24.72 C 0 km/h
257 03-10-2010 16:00:00 25.12 C 8.67 g/m*3 25.12 C 0 km/h
258 03-10-2010 17:00:00 25.22 C 9.37 g/m*3 25.22 C 0 km/h
259 03-10-2010 18:00:00 21.54 C 10.55 g/m*3 21.54 C 0 km/h
260 03-10-2010 19:00:00 18.78 C 10.84 g/m*3 18.78 C 0 km/h
261 03-10-2010 20:00:00 18.34 C 10.88 g/m*3 18.34 C 0 km/h
262 03-10-2010 21:00:00 17.96 C 11.03 g/m*3 17.96 C 0 km/h
263 03-10-2010 22:00:00 17.56 C 10.86 g/m*3 17.56 C 0 km/h
264 03-10-2010 23:00:00 17.56 C 10.32 g/m*3 17.56 C 0 km/h
265 04-10-2010 00:00:00 17.28 C 9.86 g/m*3 17.28 C 0 km/h
266 04-10-2010 01:00:00 17.18 C 9.59 g/m*3 17.18 C 0 km/h
267 04-10-2010 02:00:00 16.82 C 9.65 g/m*3 16.82 C 0 km/h
268 04-10-2010 03:00:00 15.76 C 9.96 g/m*3 15.76 C 0 km/h
269 04-10-2010 04:00:00 15.1 C 9.99 g/m*3 15.1 C 0 km/h
270 04-10-2010 05:00:00 14.3 C 9.95 g/m*3 14.3 C 0 km/h
271 04-10-2010 06:00:00 13.92 C 9.94 g/m*3 13.92 C 0 km/h
272 04-10-2010 07:00:00 13.62 C 9.83 g/m*3 13.62 C 0 km/h
273 04-10-2010 08:00:00 14.26 C 9.8 g/m*3 14.26 C 0 km/h
274 04-10-2010 09:00:00 15 C 9.23 g/m*3 15 C 0 km/h
275 04-10-2010 10:00:00 15.66 C 8.97 g/m*3 15.66 C 0 km/h
Sensor: Nr:Datum:Temp:Abs-Feuchte:Windchill:Wind:
Aussen-T/F 276 04-10-2010 11:00:00 17.62 C 8.92 g/m*3 17.62 C 0 km/h
277 04-10-2010 12:00:00 17.84 C 8.76 g/m*3 17.84 C 0 km/h
278 04-10-2010 13:00:00 18.72 C 8.62 g/m*3 18.72 C 0 km/h
279 04-10-2010 14:00:00 19.76 C 8.72 g/m*3 19.76 C 0 km/h
280 04-10-2010 15:00:00 22.5 C 8.63 g/m*3 22.5 C 0 km/h
281 04-10-2010 16:00:00 23.64 C 8.23 g/m*3 23.64 C 0 km/h
282 04-10-2010 17:00:00 21.14 C 9.16 g/m*3 21.14 C 0 km/h
283 04-10-2010 18:00:00 18.68 C 9.66 g/m*3 18.68 C 0 km/h
284 04-10-2010 19:00:00 16.52 C 10.09 g/m*3 16.52 C 0 km/h
285 04-10-2010 20:00:00 16.22 C 10.02 g/m*3 16.22 C 0 km/h
286 04-10-2010 21:00:00 15.42 C 9.94 g/m*3 15.42 C 0 km/h
287 04-10-2010 22:00:00 14.56 C 9.91 g/m*3 14.56 C 0 km/h
288 04-10-2010 23:00:00 14.2 C 9.92 g/m*3 14.2 C 0 km/h
289 05-10-2010 00:00:00 14.2 C 10.01 g/m*3 14.2 C 0 km/h
290 05-10-2010 01:00:00 13.94 C 9.9 g/m*3 13.94 C 0 km/h
291 05-10-2010 02:00:00 13.52 C 9.84 g/m*3 13.52 C 0 km/h
292 05-10-2010 03:00:00 13.6 C 10 g/m*3 13.6 C 0 km/h
293 05-10-2010 04:00:00 13.6 C 10.1 g/m*3 13.6 C 0 km/h
294 05-10-2010 05:00:00 13.6 C 10.14 g/m*3 13.6 C 0 km/h
295 05-10-2010 06:00:00 13.42 C 10.38 g/m*3 13.42 C 0 km/h
296 05-10-2010 07:00:00 13.4 C 10.56 g/m*3 13.4 C 0 km/h
297 05-10-2010 08:00:00 13.14 C 10.41 g/m*3 13.14 C 0 km/h
298 05-10-2010 09:00:00 13.3 C 10.68 g/m*3 13.3 C 0 km/h
299 05-10-2010 10:00:00 14.8 C 11.81 g/m*3 14.8 C 0 km/h
300 05-10-2010 11:00:00 17.48 C 13.01 g/m*3 17.48 C 0 km/h
Sensor: Nr:Datum:Temp:Abs-Feuchte:Windchill:Wind:
Aussen-T/F 301 05-10-2010 12:00:00 18.1 C 11.43 g/m*3 18.1 C 0 km/h
302 05-10-2010 13:00:00 19.18 C 11.23 g/m*3 19.18 C 0 km/h
303 05-10-2010 14:00:00 19.26 C 10.95 g/m*3 19.26 C 0 km/h
304 05-10-2010 15:00:00 18.8 C 12.63 g/m*3 18.8 C 0 km/h
305 05-10-2010 16:00:00 18.5 C 12.47 g/m*3 18.5 C 0 km/h
306 05-10-2010 17:00:00 17.1 C 11.67 g/m*3 17.1 C 0 km/h
307 05-10-2010 18:00:00 17.02 C 11.44 g/m*3 17.02 C 0 km/h
308 05-10-2010 19:00:00 16.66 C 11.31 g/m*3 16.66 C 0 km/h
309 05-10-2010 20:00:00 16.36 C 10.94 g/m*3 16.36 C 0 km/h
310 05-10-2010 21:00:00 15.68 C 10.26 g/m*3 15.68 C 0 km/h
311 05-10-2010 22:00:00 15.3 C 9.98 g/m*3 15.3 C 0 km/h
312 05-10-2010 23:00:00 15.6 C 9.97 g/m*3 15.6 C 0 km/h
313 06-10-2010 00:00:00 15.6 C 9.97 g/m*3 15.6 C 0 km/h
314 06-10-2010 01:00:00 15.5 C 9.99 g/m*3 15.5 C 0 km/h
315 06-10-2010 02:00:00 15.44 C 10.17 g/m*3 15.44 C 0 km/h
316 06-10-2010 03:00:00 15.28 C 10.1 g/m*3 15.28 C 0 km/h
317 06-10-2010 04:00:00 15.1 C 10.09 g/m*3 15.1 C 0 km/h
318 06-10-2010 05:00:00 14.92 C 10.26 g/m*3 14.92 C 0 km/h
319 06-10-2010 06:00:00 14.82 C 10.1 g/m*3 14.82 C 0 km/h
320 06-10-2010 07:00:00 14.66 C 9.95 g/m*3 14.66 C 0 km/h
321 06-10-2010 08:00:00 14.52 C 10.19 g/m*3 14.52 C 0 km/h
322 06-10-2010 09:00:00 15.54 C 10.12 g/m*3 15.54 C 0 km/h
323 06-10-2010 10:00:00 16.24 C 9.93 g/m*3 16.24 C 0 km/h
324 06-10-2010 11:00:00 17.76 C 9.27 g/m*3 17.76 C 0 km/h
325 06-10-2010 12:00:00 19.04 C 8.69 g/m*3 19.04 C 0 km/h
Sensor: Nr:Datum:Temp:Abs-Feuchte:Windchill:Wind:
Aussen-T/F 326 06-10-2010 13:00:00 20.2 C 8.5 g/m*3 20.2 C 0 km/h
327 06-10-2010 14:00:00 21.62 C 8.24 g/m*3 21.62 C 0 km/h
328 06-10-2010 15:00:00 23.06 C 8.25 g/m*3 23.06 C 0 km/h
329 06-10-2010 16:00:00 22.84 C 8.96 g/m*3 22.84 C 0 km/h
330 06-10-2010 17:00:00 21.08 C 10.16 g/m*3 21.08 C 0 km/h
331 06-10-2010 18:00:00 18.94 C 10.23 g/m*3 18.94 C 0 km/h
332 06-10-2010 19:00:00 17.3 C 10.19 g/m*3 17.3 C 0 km/h
333 06-10-2010 20:00:00 16.9 C 10.13 g/m*3 16.9 C 0 km/h
334 06-10-2010 21:00:00 16.36 C 10.42 g/m*3 16.36 C 0 km/h
335 06-10-2010 22:00:00 15.74 C 10.52 g/m*3 15.74 C 0 km/h
336 06-10-2010 23:00:00 14.9 C 10.32 g/m*3 14.9 C 0 km/h
337 07-10-2010 00:00:00 14.22 C 10.17 g/m*3 14.22 C 0 km/h
338 07-10-2010 01:00:00 14.24 C 10.5 g/m*3 14.24 C 0 km/h
339 07-10-2010 02:00:00 14.24 C 10.43 g/m*3 14.24 C 0 km/h
340 07-10-2010 03:00:00 14.08 C 10.35 g/m*3 14.08 C 0 km/h
341 07-10-2010 04:00:00 13.82 C 10.31 g/m*3 13.82 C 0 km/h
342 07-10-2010 05:00:00 13.3 C 10.17 g/m*3 13.3 C 0 km/h
343 07-10-2010 06:00:00 13.84 C 10.51 g/m*3 13.84 C 0 km/h
344 07-10-2010 07:00:00 14.12 C 10.6 g/m*3 14.12 C 0 km/h
345 07-10-2010 08:00:00 14.66 C 10.9 g/m*3 14.66 C 0 km/h
346 07-10-2010 09:00:00 15.06 C 10.6 g/m*3 15.06 C 0 km/h
347 07-10-2010 10:00:00 16.18 C 10.33 g/m*3 16.18 C 0 km/h
348 07-10-2010 11:00:00 17.26 C 10.32 g/m*3 17.26 C 0 km/h
349 07-10-2010 12:00:00 18.4 C 9.97 g/m*3 18.4 C 0 km/h
350 07-10-2010 13:00:00 19.26 C 9.83 g/m*3 19.26 C 0 km/h
Sensor: Nr:Datum:Temp:Abs-Feuchte:Windchill:Wind:
Aussen-T/F 351 07-10-2010 14:00:00 19.88 C 9.78 g/m*3 19.88 C 0 km/h
352 07-10-2010 15:00:00 20.5 C 9.5 g/m*3 20.5 C 0 km/h
353 07-10-2010 16:00:00 19.94 C 9.47 g/m*3 19.94 C 0 km/h
354 07-10-2010 17:00:00 19.16 C 9.57 g/m*3 19.16 C 0 km/h
355 07-10-2010 18:00:00 17.88 C 10.22 g/m*3 17.88 C 0 km/h
356 07-10-2010 19:00:00 16.9 C 10.38 g/m*3 16.9 C 0 km/h
357 07-10-2010 20:00:00 16.3 C 10.35 g/m*3 16.3 C 0 km/h
358 07-10-2010 21:00:00 16.22 C 10.13 g/m*3 16.22 C 0 km/h
359 07-10-2010 22:00:00 16 C 9.86 g/m*3 16 C 0 km/h
360 07-10-2010 23:00:00 16.02 C 9.74 g/m*3 16.02 C 0 km/h
361 08-10-2010 00:00:00 15.82 C 9.89 g/m*3 15.82 C 0 km/h
362 08-10-2010 01:00:00 15.62 C 9.67 g/m*3 15.62 C 0 km/h
363 08-10-2010 02:00:00 15.44 C 9.35 g/m*3 15.44 C 0 km/h
364 08-10-2010 03:00:00 14.92 C 8.75 g/m*3 14.92 C 0 km/h
365 08-10-2010 04:00:00 14.52 C 8.57 g/m*3 14.52 C 0 km/h
366 08-10-2010 05:00:00 14.24 C 8.81 g/m*3 14.24 C 0 km/h
367 08-10-2010 06:00:00 13.98 C 8.96 g/m*3 13.98 C 0 km/h
368 08-10-2010 07:00:00 14.02 C 9.13 g/m*3 14.02 C 0 km/h
369 08-10-2010 08:00:00 14.2 C 9.23 g/m*3 14.2 C 0 km/h
370 08-10-2010 09:00:00 14.6 C 9.41 g/m*3 14.6 C 0 km/h
371 08-10-2010 10:00:00 15.28 C 9.47 g/m*3 15.28 C 0 km/h
372 08-10-2010 11:00:00 15.86 C 9.29 g/m*3 15.86 C 0 km/h
373 08-10-2010 12:00:00 16.54 C 9.09 g/m*3 16.54 C 0 km/h
374 08-10-2010 13:00:00 16.94 C 8.77 g/m*3 16.94 C 0 km/h
375 08-10-2010 14:00:00 18.76 C 8.77 g/m*3 18.76 C 0 km/h
Sensor: Nr:Datum:Temp:Abs-Feuchte:Windchill:Wind:
Aussen-T/F 376 08-10-2010 15:00:00 20.32 C 8.52 g/m*3 20.32 C 0 km/h
377 08-10-2010 16:00:00 22.2 C 8.95 g/m*3 22.2 C 0 km/h
378 08-10-2010 17:00:00 21.78 C 9.24 g/m*3 21.78 C 0 km/h
379 08-10-2010 18:00:00 19.06 C 9.68 g/m*3 19.06 C 0 km/h
380 08-10-2010 19:00:00 15.88 C 9.98 g/m*3 15.88 C 0 km/h
381 08-10-2010 20:00:00 14.78 C 9.79 g/m*3 14.78 C 0 km/h
382 08-10-2010 21:00:00 14.08 C 9.65 g/m*3 14.08 C 0 km/h
383 08-10-2010 22:00:00 13.28 C 9.51 g/m*3 13.28 C 0 km/h
384 08-10-2010 23:00:00 12.58 C 9.3 g/m*3 12.58 C 0 km/h
385 09-10-2010 00:00:00 11.9 C 9.11 g/m*3 11.9 C 0 km/h
386 09-10-2010 01:00:00 11.34 C 8.96 g/m*3 11.34 C 0 km/h
387 09-10-2010 02:00:00 10.74 C 8.68 g/m*3 10.74 C 0 km/h
388 09-10-2010 03:00:00 10.24 C 8.43 g/m*3 10.24 C 0 km/h
389 09-10-2010 04:00:00 9.78 C 8.32 g/m*3 9.78 C 0 km/h
390 09-10-2010 05:00:00 9.52 C 8.29 g/m*3 9.52 C 0 km/h
391 09-10-2010 06:00:00 9.42 C 8.31 g/m*3 9.42 C 0 km/h
392 09-10-2010 07:00:00 9.24 C 8.24 g/m*3 9.24 C 0 km/h
393 09-10-2010 08:00:00 9.2 C 8.22 g/m*3 9.2 C 0 km/h
394 09-10-2010 09:00:00 9.28 C 8.24 g/m*3 9.28 C 0 km/h
395 09-10-2010 10:00:00 10.44 C 8.87 g/m*3 10.44 C 0 km/h
396 09-10-2010 11:00:00 12.52 C 9.53 g/m*3 12.52 C 0 km/h
397 09-10-2010 12:00:00 14.68 C 8.2 g/m*3 14.68 C 0 km/h
398 09-10-2010 13:00:00 17.1 C 7.89 g/m*3 17.1 C 0 km/h
399 09-10-2010 14:00:00 19.96 C 7.03 g/m*3 19.96 C 0 km/h
400 09-10-2010 15:00:00 21.86 C 6.28 g/m*3 21.86 C 0 km/h
Sensor: Nr:Datum:Temp:Abs-Feuchte:Windchill:Wind:
Aussen-T/F 401 09-10-2010 16:00:00 22.16 C 6.23 g/m*3 22.16 C 0 km/h
402 09-10-2010 17:00:00 20.8 C 6.19 g/m*3 20.8 C 0 km/h
403 09-10-2010 18:00:00 17.02 C 6.26 g/m*3 17.02 C 0 km/h
404 09-10-2010 19:00:00 13.8 C 6.12 g/m*3 13.8 C 0 km/h
405 09-10-2010 20:00:00 12.84 C 6.58 g/m*3 12.84 C 0 km/h
406 09-10-2010 21:00:00 11.48 C 6.99 g/m*3 11.48 C 0 km/h
407 09-10-2010 22:00:00 10.6 C 7.03 g/m*3 10.6 C 0 km/h
408 09-10-2010 23:00:00 9.62 C 6.92 g/m*3 9.62 C 0 km/h
409 10-10-2010 00:00:00 8.94 C 6.99 g/m*3 8.94 C 0 km/h
410 10-10-2010 01:00:00 8.38 C 6.93 g/m*3 8.38 C 0 km/h
411 10-10-2010 02:00:00 7.76 C 6.82 g/m*3 7.76 C 0 km/h
412 10-10-2010 03:00:00 7.14 C 6.66 g/m*3 7.14 C 0 km/h
413 10-10-2010 04:00:00 6.76 C 6.61 g/m*3 6.76 C 0 km/h
414 10-10-2010 05:00:00 6.28 C 6.45 g/m*3 6.28 C 0 km/h
415 10-10-2010 06:00:00 5.86 C 6.36 g/m*3 5.86 C 0 km/h
416 10-10-2010 07:00:00 5.5 C 6.31 g/m*3 5.5 C 0 km/h
417 10-10-2010 08:00:00 6.36 C 6.69 g/m*3 6.36 C 0 km/h
418 10-10-2010 09:00:00 7.26 C 6.79 g/m*3 7.26 C 0 km/h
419 10-10-2010 10:00:00 8.92 C 6.6 g/m*3 8.92 C 0 km/h
420 10-10-2010 11:00:00 10.92 C 6.57 g/m*3 10.92 C 0 km/h
421 10-10-2010 12:00:00 12.8 C 6.47 g/m*3 12.8 C 0 km/h
422 10-10-2010 13:00:00 15.86 C 5.67 g/m*3 15.86 C 0 km/h
423 10-10-2010 14:00:00 18.62 C 5.45 g/m*3 18.62 C 0 km/h
424 10-10-2010 15:00:00 20.4 C 5.91 g/m*3 20.4 C 0 km/h
425 10-10-2010 16:00:00 21.28 C 5.7 g/m*3 21.28 C 0 km/h
Sensor: Nr:Datum:Temp:Abs-Feuchte:Windchill:Wind:
Aussen-T/F 426 10-10-2010 17:00:00 20.64 C 5.6 g/m*3 20.64 C 0 km/h
427 10-10-2010 18:00:00 17.2 C 5.45 g/m*3 17.2 C 0 km/h
428 10-10-2010 19:00:00 14.18 C 5.49 g/m*3 14.18 C 0 km/h
429 10-10-2010 20:00:00 13.02 C 4.91 g/m*3 13.02 C 0 km/h
430 10-10-2010 21:00:00 12.44 C 4.01 g/m*3 12.44 C 0 km/h
431 10-10-2010 22:00:00 11.46 C 4.12 g/m*3 11.46 C 0 km/h
432 10-10-2010 23:00:00 10.72 C 4.52 g/m*3 10.72 C 0 km/h
433 11-10-2010 00:00:00 9.98 C 4.88 g/m*3 9.98 C 0 km/h
434 11-10-2010 01:00:00 9.44 C 4.91 g/m*3 9.44 C 0 km/h
435 11-10-2010 02:00:00 9.08 C 4.87 g/m*3 9.08 C 0 km/h
436 11-10-2010 03:00:00 8.24 C 4.99 g/m*3 8.24 C 0 km/h
437 11-10-2010 04:00:00 7.58 C 5.1 g/m*3 7.58 C 0 km/h
438 11-10-2010 05:00:00 6.64 C 5.24 g/m*3 6.64 C 0 km/h
439 11-10-2010 06:00:00 5.72 C 5.32 g/m*3 5.72 C 0 km/h
440 11-10-2010 07:00:00 5.22 C 5.36 g/m*3 5.22 C 0 km/h
441 11-10-2010 08:00:00 4.96 C 5.39 g/m*3 4.96 C 0 km/h
442 11-10-2010 09:00:00 5.6 C 5.7 g/m*3 5.6 C 0 km/h
443 11-10-2010 10:00:00 7.12 C 6.11 g/m*3 7.12 C 0 km/h
444 11-10-2010 11:00:00 9.46 C 6.36 g/m*3 9.46 C 0 km/h
445 11-10-2010 12:00:00 11.62 C 6.45 g/m*3 11.62 C 0 km/h
446 11-10-2010 13:00:00 14.92 C 5.9 g/m*3 14.92 C 0 km/h
447 11-10-2010 14:00:00 17.48 C 5.45 g/m*3 17.48 C 0 km/h
448 11-10-2010 15:00:00 19.78 C 5.05 g/m*3 19.78 C 0 km/h
449 11-10-2010 16:00:00 20.96 C 4.61 g/m*3 20.96 C 0 km/h
450 11-10-2010 17:00:00 19.56 C 3.6 g/m*3 19.56 C 0 km/h
Sensor: Nr:Datum:Temp:Abs-Feuchte:Windchill:Wind:
Aussen-T/F 451 11-10-2010 18:00:00 16.12 C 3.98 g/m*3 16.12 C 0 km/h
452 11-10-2010 19:00:00 13.18 C 4.33 g/m*3 13.18 C 0 km/h
453 11-10-2010 20:00:00 11.32 C 4.82 g/m*3 11.32 C 0 km/h
454 11-10-2010 21:00:00 10.025 C 4.96 g/m*3 10.03 C 0 km/h
455 11-10-2010 22:00:00 9.2 C 4.84 g/m*3 9.2 C 0 km/h
456 11-10-2010 23:00:00 8.24 C 4.87 g/m*3 8.24 C 0 km/h
457 12-10-2010 00:00:00 7.16 C 5.01 g/m*3 7.16 C 0 km/h
458 12-10-2010 01:00:00 6.4 C 5.13 g/m*3 6.4 C 0 km/h
459 12-10-2010 02:00:00 5.74 C 5.24 g/m*3 5.74 C 0 km/h
460 12-10-2010 03:00:00 5.04 C 5.31 g/m*3 5.04 C 0 km/h
461 12-10-2010 04:00:00 4.42 C 5.34 g/m*3 4.42 C 0 km/h
462 12-10-2010 05:00:00 3.8 C 5.31 g/m*3 3.8 C 0 km/h
463 12-10-2010 06:00:00 3.46 C 5.26 g/m*3 3.46 C 0 km/h
464 12-10-2010 07:00:00 2.94 C 5.15 g/m*3 2.94 C 0 km/h
465 12-10-2010 08:00:00 3.56 C 5.52 g/m*3 3.56 C 0 km/h
466 12-10-2010 09:00:00 4.9 C 5.93 g/m*3 4.9 C 0 km/h
467 12-10-2010 10:00:00 5.82 C 6.07 g/m*3 5.82 C 0 km/h
468 12-10-2010 11:00:00 7.16 C 6.36 g/m*3 7.16 C 0 km/h
469 12-10-2010 12:00:00 9.56 C 6.18 g/m*3 9.56 C 0 km/h
470 12-10-2010 13:00:00 12.58 C 5.72 g/m*3 12.58 C 0 km/h
471 12-10-2010 14:00:00 15.26 C 5.65 g/m*3 15.26 C 0 km/h
472 12-10-2010 15:00:00 16.94 C 5.42 g/m*3 16.94 C 0 km/h
473 12-10-2010 16:00:00 17.66 C 5.42 g/m*3 17.66 C 0 km/h
474 12-10-2010 17:00:00 17.22 C 4.57 g/m*3 17.22 C 0 km/h
475 12-10-2010 18:00:00 14.5 C 5.65 g/m*3 14.5 C 0 km/h
Sensor: Nr:Datum:Temp:Abs-Feuchte:Windchill:Wind:
Aussen-T/F 476 12-10-2010 19:00:00 11.42 C 6.45 g/m*3 11.42 C 0 km/h
477 12-10-2010 20:00:00 9.84 C 6.47 g/m*3 9.84 C 0 km/h
478 12-10-2010 21:00:00 8.36 C 6.26 g/m*3 8.36 C 0 km/h
479 12-10-2010 22:00:00 7.74 C 6.15 g/m*3 7.74 C 0 km/h
480 12-10-2010 23:00:00 7.78 C 6 g/m*3 7.78 C 0 km/h
481 13-10-2010 00:00:00 7.6 C 5.86 g/m*3 7.6 C 0 km/h
482 13-10-2010 01:00:00 7.02 C 5.82 g/m*3 7.02 C 0 km/h
483 13-10-2010 02:00:00 6.8 C 5.83 g/m*3 6.8 C 0 km/h
484 13-10-2010 03:00:00 6.44 C 5.69 g/m*3 6.44 C 0 km/h
485 13-10-2010 04:00:00 6.2 C 5.59 g/m*3 6.2 C 0 km/h
486 13-10-2010 05:00:00 6.1 C 5.6 g/m*3 6.1 C 0 km/h
487 13-10-2010 06:00:00 5.84 C 5.6 g/m*3 5.84 C 0 km/h
488 13-10-2010 07:00:00 5.42 C 5.53 g/m*3 5.42 C 0 km/h
489 13-10-2010 08:00:00 5.62 C 5.49 g/m*3 5.62 C 0 km/h
490 13-10-2010 09:00:00 5.86 C 5.45 g/m*3 5.86 C 0 km/h
491 13-10-2010 10:00:00 6.66 C 5.3 g/m*3 6.66 C 0 km/h
492 13-10-2010 11:00:00 7.04 C 5.08 g/m*3 7.04 C 0 km/h
493 13-10-2010 12:00:00 8.14 C 5.06 g/m*3 8.14 C 0 km/h
494 13-10-2010 13:00:00 8.8 C 4.89 g/m*3 8.8 C 0 km/h
495 13-10-2010 14:00:00 9.8 C 4.95 g/m*3 9.8 C 0 km/h
496 13-10-2010 15:00:00 11.78 C 4.94 g/m*3 11.78 C 0 km/h
497 13-10-2010 16:00:00 12.06 C 5.01 g/m*3 12.06 C 0 km/h
498 13-10-2010 17:00:00 12.34 C 5.23 g/m*3 12.34 C 0 km/h
499 13-10-2010 18:00:00 9.94 C 5.5 g/m*3 9.94 C 0 km/h
500 13-10-2010 19:00:00 7.48 C 5.76 g/m*3 7.48 C 0 km/h
Sensor: Nr:Datum:Temp:Abs-Feuchte:Windchill:Wind:
Aussen-T/F 501 13-10-2010 20:00:00 6.96 C 5.81 g/m*3 6.96 C 0 km/h
502 13-10-2010 21:00:00 5.82 C 5.72 g/m*3 5.82 C 0 km/h
503 13-10-2010 22:00:00 5.16 C 5.73 g/m*3 5.16 C 0 km/h
504 13-10-2010 23:00:00 4.52 C 5.61 g/m*3 4.52 C 0 km/h
505 14-10-2010 00:00:00 3.88 C 5.51 g/m*3 3.88 C 0 km/h
506 14-10-2010 01:00:00 3.38 C 5.47 g/m*3 3.38 C 0 km/h
507 14-10-2010 02:00:00 3.62 C 5.65 g/m*3 3.62 C 0 km/h
508 14-10-2010 03:00:00 3.52 C 5.57 g/m*3 3.52 C 0 km/h
509 14-10-2010 04:00:00 3.54 C 5.55 g/m*3 3.54 C 0 km/h
510 14-10-2010 05:00:00 3.62 C 5.63 g/m*3 3.62 C 0 km/h
511 14-10-2010 06:00:00 3.92 C 5.7 g/m*3 3.92 C 0 km/h
512 14-10-2010 07:00:00 4.12 C 5.76 g/m*3 4.12 C 0 km/h
513 14-10-2010 08:00:00 4.44 C 5.84 g/m*3 4.44 C 0 km/h
514 14-10-2010 09:00:00 4.56 C 5.86 g/m*3 4.56 C 0 km/h
515 14-10-2010 10:00:00 5.16 C 5.88 g/m*3 5.16 C 0 km/h
516 14-10-2010 11:00:00 6.2 C 5.75 g/m*3 6.2 C 0 km/h
517 14-10-2010 12:00:00 7.86 C 5.59 g/m*3 7.86 C 0 km/h
518 14-10-2010 13:00:00 9.36 C 5.58 g/m*3 9.36 C 0 km/h
519 14-10-2010 14:00:00 11.86 C 5.85 g/m*3 11.86 C 0 km/h
520 14-10-2010 15:00:00 13.94 C 5.72 g/m*3 13.94 C 0 km/h
521 14-10-2010 16:00:00 14.4 C 5.83 g/m*3 14.4 C 0 km/h
522 14-10-2010 17:00:00 13.24 C 5.5 g/m*3 13.24 C 0 km/h
523 14-10-2010 18:00:00 11.04 C 5.96 g/m*3 11.04 C 0 km/h
524 14-10-2010 19:00:00 10.26 C 6.25 g/m*3 10.26 C 0 km/h
525 14-10-2010 20:00:00 10.2 C 6.24 g/m*3 10.2 C 0 km/h
Sensor: Nr:Datum:Temp:Abs-Feuchte:Windchill:Wind:
Aussen-T/F 526 14-10-2010 21:00:00 9.8 C 6.33 g/m*3 9.8 C 0 km/h
527 14-10-2010 22:00:00 9.74 C 6.51 g/m*3 9.74 C 0 km/h
528 14-10-2010 23:00:00 9.68 C 6.68 g/m*3 9.68 C 0 km/h
529 15-10-2010 00:00:00 9.5 C 6.75 g/m*3 9.5 C 0 km/h
530 15-10-2010 01:00:00 9.42 C 6.88 g/m*3 9.42 C 0 km/h
531 15-10-2010 02:00:00 9.24 C 7.13 g/m*3 9.24 C 0 km/h
532 15-10-2010 03:00:00 9.28 C 7.25 g/m*3 9.28 C 0 km/h
533 15-10-2010 04:00:00 9.28 C 7.36 g/m*3 9.28 C 0 km/h
534 15-10-2010 05:00:00 9.2 C 7.41 g/m*3 9.2 C 0 km/h
535 15-10-2010 06:00:00 9.3 C 7.66 g/m*3 9.3 C 0 km/h
536 15-10-2010 07:00:00 9.28 C 7.74 g/m*3 9.28 C 0 km/h
537 15-10-2010 08:00:00 9.24 C 7.86 g/m*3 9.24 C 0 km/h
538 15-10-2010 09:00:00 9.82 C 8.19 g/m*3 9.82 C 0 km/h
539 15-10-2010 10:00:00 10.72 C 8.06 g/m*3 10.72 C 0 km/h
540 15-10-2010 11:00:00 11.52 C 7.76 g/m*3 11.52 C 0 km/h
541 15-10-2010 12:00:00 12.42 C 7.33 g/m*3 12.42 C 0 km/h
542 15-10-2010 13:00:00 13.38 C 6.9 g/m*3 13.38 C 0 km/h
543 15-10-2010 14:00:00 12.78 C 6.76 g/m*3 12.78 C 0 km/h
544 15-10-2010 15:00:00 12.86 C 6.68 g/m*3 12.86 C 0 km/h
545 15-10-2010 16:00:00 12.24 C 6.79 g/m*3 12.24 C 0 km/h
546 15-10-2010 17:00:00 11.56 C 7.07 g/m*3 11.56 C 0 km/h
547 15-10-2010 18:00:00 10.88 C 7.03 g/m*3 10.88 C 0 km/h
548 15-10-2010 19:00:00 10.52 C 7.01 g/m*3 10.52 C 0 km/h
549 15-10-2010 20:00:00 10.36 C 7.02 g/m*3 10.36 C 0 km/h
550 15-10-2010 21:00:00 10.1 C 7.19 g/m*3 10.1 C 0 km/h
Sensor: Nr:Datum:Temp:Abs-Feuchte:Windchill:Wind:
Aussen-T/F 551 15-10-2010 22:00:00 9.3 C 7.67 g/m*3 9.3 C 0 km/h
552 15-10-2010 23:00:00 9.2 C 8.04 g/m*3 9.2 C 0 km/h
553 16-10-2010 00:00:00 9.02 C 8.16 g/m*3 9.02 C 0 km/h
554 16-10-2010 01:00:00 8.82 C 8.19 g/m*3 8.82 C 0 km/h
555 16-10-2010 02:00:00 8.78 C 8.22 g/m*3 8.78 C 0 km/h
556 16-10-2010 03:00:00 8.68 C 8.21 g/m*3 8.68 C 0 km/h
557 16-10-2010 04:00:00 8.54 C 8.13 g/m*3 8.54 C 0 km/h
558 16-10-2010 05:00:00 8.36 C 8.04 g/m*3 8.36 C 0 km/h
559 16-10-2010 06:00:00 8.3 C 8.01 g/m*3 8.3 C 0 km/h
560 16-10-2010 07:00:00 8.12 C 7.88 g/m*3 8.12 C 0 km/h
561 16-10-2010 08:00:00 8.1 C 7.77 g/m*3 8.1 C 0 km/h
562 16-10-2010 09:00:00 8.24 C 7.81 g/m*3 8.24 C 0 km/h
563 16-10-2010 10:00:00 8.64 C 8.03 g/m*3 8.64 C 0 km/h
564 16-10-2010 11:00:00 8.96 C 8.11 g/m*3 8.96 C 0 km/h
565 16-10-2010 12:00:00 9.38 C 8.11 g/m*3 9.38 C 0 km/h
566 16-10-2010 13:00:00 9.72 C 8.16 g/m*3 9.72 C 0 km/h
567 16-10-2010 14:00:00 9.96 C 7.89 g/m*3 9.96 C 0 km/h
568 16-10-2010 15:00:00 10.08 C 7.82 g/m*3 10.08 C 0 km/h
569 16-10-2010 16:00:00 9.9 C 7.84 g/m*3 9.9 C 0 km/h
570 16-10-2010 17:00:00 9.36 C 7.9 g/m*3 9.36 C 0 km/h
571 16-10-2010 18:00:00 8.38 C 6.98 g/m*3 8.38 C 0 km/h
572 16-10-2010 19:00:00 6.96 C 6.55 g/m*3 6.96 C 0 km/h
573 16-10-2010 20:00:00 6.56 C 6.31 g/m*3 6.56 C 0 km/h
574 16-10-2010 21:00:00 6.28 C 6.21 g/m*3 6.28 C 0 km/h
575 16-10-2010 22:00:00 5.9 C 6.37 g/m*3 5.9 C 0 km/h
Sensor: Nr:Datum:Temp:Abs-Feuchte:Windchill:Wind:
Aussen-T/F 576 16-10-2010 23:00:00 5.96 C 6.56 g/m*3 5.96 C 0 km/h
577 17-10-2010 00:00:00 6.14 C 6.7 g/m*3 6.14 C 0 km/h
578 17-10-2010 01:00:00 6.24 C 6.71 g/m*3 6.24 C 0 km/h
579 17-10-2010 02:00:00 6.22 C 6.61 g/m*3 6.22 C 0 km/h
580 17-10-2010 03:00:00 6.24 C 6.49 g/m*3 6.24 C 0 km/h
581 17-10-2010 04:00:00 6.22 C 6.33 g/m*3 6.22 C 0 km/h
582 17-10-2010 05:00:00 6.3 C 6.43 g/m*3 6.3 C 0 km/h
583 17-10-2010 06:00:00 6.34 C 6.46 g/m*3 6.34 C 0 km/h
584 17-10-2010 07:00:00 6.34 C 6.29 g/m*3 6.34 C 0 km/h
585 17-10-2010 08:00:00 6.58 C 6.17 g/m*3 6.58 C 0 km/h
586 17-10-2010 09:00:00 6.88 C 6.15 g/m*3 6.88 C 0 km/h
587 17-10-2010 10:00:00 7.32 C 6.14 g/m*3 7.32 C 0 km/h
588 17-10-2010 11:00:00 7.7 C 5.98 g/m*3 7.7 C 0 km/h
589 17-10-2010 12:00:00 7.88 C 5.97 g/m*3 7.88 C 0 km/h
590 17-10-2010 13:00:00 8.1 C 5.96 g/m*3 8.1 C 0 km/h
591 17-10-2010 14:00:00 8.36 C 6.14 g/m*3 8.36 C 0 km/h
592 17-10-2010 15:00:00 8.52 C 6.12 g/m*3 8.52 C 0 km/h
593 17-10-2010 16:00:00 8.46 C 6.28 g/m*3 8.46 C 0 km/h
594 17-10-2010 17:00:00 8.3 C 6.32 g/m*3 8.3 C 0 km/h
595 17-10-2010 18:00:00 7.9 C 6.32 g/m*3 7.9 C 0 km/h
596 17-10-2010 19:00:00 7.68 C 6.38 g/m*3 7.68 C 0 km/h
597 17-10-2010 20:00:00 7.68 C 6.43 g/m*3 7.68 C 0 km/h
598 17-10-2010 21:00:00 7.62 C 6.44 g/m*3 7.62 C 0 km/h
599 17-10-2010 22:00:00 7.38 C 6.43 g/m*3 7.38 C 0 km/h
600 17-10-2010 23:00:00 7.04 C 6.31 g/m*3 7.04 C 0 km/h
Sensor: Nr:Datum:Temp:Abs-Feuchte:Windchill:Wind:
Aussen-T/F 601 18-10-2010 00:00:00 6.48 C 6.19 g/m*3 6.48 C 0 km/h
602 18-10-2010 01:00:00 5.18 C 5.97 g/m*3 5.18 C 0 km/h
603 18-10-2010 02:00:00 5.8 C 6.35 g/m*3 5.8 C 0 km/h
604 18-10-2010 03:00:00 6 C 6.3 g/m*3 6 C 0 km/h
605 18-10-2010 04:00:00 6.02 C 6.25 g/m*3 6.02 C 0 km/h
606 18-10-2010 05:00:00 5.84 C 6.1 g/m*3 5.84 C 0 km/h
607 18-10-2010 06:00:00 5.8 C 6.16 g/m*3 5.8 C 0 km/h
608 18-10-2010 07:00:00 5.76 C 6.14 g/m*3 5.76 C 0 km/h
609 18-10-2010 08:00:00 5.78 C 6.2 g/m*3 5.78 C 0 km/h
610 18-10-2010 09:00:00 6.66 C 6.44 g/m*3 6.66 C 0 km/h
611 18-10-2010 10:00:00 7.56 C 5.99 g/m*3 7.56 C 0 km/h
612 18-10-2010 11:00:00 7.76 C 5.06 g/m*3 7.76 C 0 km/h
613 18-10-2010 12:00:00 8.26 C 4.98 g/m*3 8.26 C 0 km/h
614 18-10-2010 13:00:00 8.82 C 4.85 g/m*3 8.82 C 0 km/h
615 18-10-2010 14:00:00 8.88 C 4.86 g/m*3 8.88 C 0 km/h
616 18-10-2010 15:00:00 8.74 C 4.86 g/m*3 8.74 C 0 km/h
617 18-10-2010 16:00:00 8.74 C 4.91 g/m*3 8.74 C 0 km/h
618 18-10-2010 17:00:00 8.52 C 4.86 g/m*3 8.52 C 0 km/h
619 18-10-2010 18:00:00 7.76 C 4.97 g/m*3 7.76 C 0 km/h
620 18-10-2010 19:00:00 6.32 C 4.89 g/m*3 6.32 C 0 km/h
621 18-10-2010 20:00:00 5.6 C 5.05 g/m*3 5.6 C 0 km/h
622 18-10-2010 21:00:00 5.18 C 5.03 g/m*3 5.18 C 0 km/h
623 18-10-2010 22:00:00 4.92 C 5.06 g/m*3 4.92 C 0 km/h
624 18-10-2010 23:00:00 4.86 C 5.17 g/m*3 4.86 C 0 km/h
625 19-10-2010 00:00:00 5.14 C 5.24 g/m*3 5.14 C 0 km/h
Sensor: Nr:Datum:Temp:Abs-Feuchte:Windchill:Wind:
Aussen-T/F 626 19-10-2010 01:00:00 5.42 C 5.27 g/m*3 5.42 C 0 km/h
627 19-10-2010 02:00:00 5.5 C 5.32 g/m*3 5.5 C 0 km/h
628 19-10-2010 03:00:00 4.96 C 5.75 g/m*3 4.96 C 0 km/h
629 19-10-2010 04:00:00 5.04 C 6.04 g/m*3 5.04 C 0 km/h
630 19-10-2010 05:00:00 5.42 C 6.06 g/m*3 5.42 C 0 km/h
631 19-10-2010 06:00:00 5.6 C 6.31 g/m*3 5.6 C 0 km/h
632 19-10-2010 07:00:00 5.98 C 6.38 g/m*3 5.98 C 0 km/h
633 19-10-2010 08:00:00 5.98 C 6.42 g/m*3 5.98 C 0 km/h
634 19-10-2010 09:00:00 6.54 C 6.62 g/m*3 6.54 C 0 km/h
635 19-10-2010 10:00:00 7.34 C 6.65 g/m*3 7.34 C 0 km/h
636 19-10-2010 11:00:00 7.5 C 6.93 g/m*3 7.5 C 0 km/h
637 19-10-2010 12:00:00 7.98 C 7.08 g/m*3 7.98 C 0 km/h
638 19-10-2010 13:00:00 9.08 C 7.48 g/m*3 9.08 C 0 km/h
639 19-10-2010 14:00:00 9.8 C 7.42 g/m*3 9.8 C 0 km/h
640 19-10-2010 15:00:00 10.34 C 7.37 g/m*3 10.34 C 0 km/h
641 19-10-2010 16:00:00 12.46 C 7 g/m*3 12.46 C 0 km/h
642 19-10-2010 17:00:00 10.3 C 7.22 g/m*3 10.3 C 0 km/h
643 19-10-2010 18:00:00 9.04 C 6.96 g/m*3 9.04 C 0 km/h
644 19-10-2010 19:00:00 7.98 C 6.85 g/m*3 7.98 C 0 km/h
645 19-10-2010 20:00:00 7.36 C 6.46 g/m*3 7.36 C 0 km/h
646 19-10-2010 21:00:00 6.94 C 6.22 g/m*3 6.94 C 0 km/h
647 19-10-2010 22:00:00 6.52 C 6.16 g/m*3 6.52 C 0 km/h
648 19-10-2010 23:00:00 6.54 C 6.2 g/m*3 6.54 C 0 km/h
649 20-10-2010 00:00:00 6.34 C 6.16 g/m*3 6.34 C 0 km/h
650 20-10-2010 01:00:00 6.38 C 6.16 g/m*3 6.38 C 0 km/h
Sensor: Nr:Datum:Temp:Abs-Feuchte:Windchill:Wind:
Aussen-T/F 651 20-10-2010 02:00:00 5.94 C 6.39 g/m*3 5.94 C 0 km/h
652 20-10-2010 03:00:00 5.76 C 6.53 g/m*3 5.76 C 0 km/h
653 20-10-2010 04:00:00 5.84 C 6.51 g/m*3 5.84 C 0 km/h
654 20-10-2010 05:00:00 5.62 C 6.56 g/m*3 5.62 C 0 km/h
655 20-10-2010 06:00:00 5.52 C 6.61 g/m*3 5.52 C 0 km/h
656 20-10-2010 07:00:00 5.5 C 6.64 g/m*3 5.5 C 0 km/h
657 20-10-2010 08:00:00 5.6 C 6.66 g/m*3 5.6 C 0 km/h
658 20-10-2010 09:00:00 6 C 6.84 g/m*3 6 C 0 km/h
659 20-10-2010 10:00:00 6.92 C 6.95 g/m*3 6.92 C 0 km/h
660 20-10-2010 11:00:00 6.84 C 6.44 g/m*3 6.84 C 0 km/h
661 20-10-2010 12:00:00 6.92 C 6.38 g/m*3 6.92 C 0 km/h
662 20-10-2010 13:00:00 7.92 C 6.2 g/m*3 7.92 C 0 km/h
663 20-10-2010 14:00:00 9.48 C 5.67 g/m*3 9.48 C 0 km/h
664 20-10-2010 15:00:00 7.68 C 5.56 g/m*3 7.68 C 0 km/h
665 20-10-2010 16:00:00 7.36 C 5.06 g/m*3 7.36 C 0 km/h
666 20-10-2010 17:00:00 7.02 C 4.92 g/m*3 7.02 C 0 km/h
667 20-10-2010 18:00:00 6.32 C 5.04 g/m*3 6.32 C 0 km/h
668 20-10-2010 19:00:00 4.64 C 5.24 g/m*3 4.64 C 0 km/h
669 20-10-2010 20:00:00 4.54 C 5.25 g/m*3 4.54 C 0 km/h
670 20-10-2010 21:00:00 4.46 C 5.11 g/m*3 4.46 C 0 km/h
671 20-10-2010 22:00:00 4.48 C 5.07 g/m*3 4.48 C 0 km/h
672 20-10-2010 23:00:00 4.32 C 5.05 g/m*3 4.32 C 0 km/h
673 21-10-2010 00:00:00 4.6 C 5.11 g/m*3 4.6 C 0 km/h
674 21-10-2010 01:00:00 4.44 C 5.04 g/m*3 4.44 C 0 km/h
675 21-10-2010 02:00:00 3.74 C 4.97 g/m*3 3.74 C 0 km/h
Sensor: Nr:Datum:Temp:Abs-Feuchte:Windchill:Wind:
Aussen-T/F 676 21-10-2010 03:00:00 3.32 C 4.98 g/m*3 3.32 C 0 km/h
677 21-10-2010 04:00:00 2.64 C 4.9 g/m*3 2.64 C 0 km/h
678 21-10-2010 05:00:00 1.92 C 4.82 g/m*3 1.92 C 0 km/h
679 21-10-2010 06:00:00 1.7 C 4.9 g/m*3 1.7 C 0 km/h
680 21-10-2010 07:00:00 1.66 C 5 g/m*3 1.66 C 0 km/h
681 21-10-2010 08:00:00 2.1 C 5.14 g/m*3 2.1 C 0 km/h
682 21-10-2010 09:00:00 3 C 5.24 g/m*3 3 C 0 km/h
683 21-10-2010 10:00:00 4.16 C 5.06 g/m*3 4.16 C 0 km/h
684 21-10-2010 11:00:00 5.64 C 4.99 g/m*3 5.64 C 0 km/h
685 21-10-2010 12:00:00 6.98 C 4.63 g/m*3 6.98 C 0 km/h
686 21-10-2010 13:00:00 8.7 C 4.13 g/m*3 8.7 C 0 km/h
687 21-10-2010 14:00:00 10.38 C 3.87 g/m*3 10.38 C 0 km/h
688 21-10-2010 15:00:00 10.66 C 3.63 g/m*3 10.66 C 0 km/h
689 21-10-2010 16:00:00 10.4 C 3.64 g/m*3 10.4 C 0 km/h
690 21-10-2010 17:00:00 10.96 C 3.55 g/m*3 10.96 C 0 km/h
691 21-10-2010 18:00:00 7.38 C 3.99 g/m*3 7.38 C 0 km/h
692 21-10-2010 19:00:00 5.64 C 4.05 g/m*3 5.64 C 0 km/h
693 21-10-2010 20:00:00 4.86 C 3.96 g/m*3 4.86 C 0 km/h
694 21-10-2010 21:00:00 4.62 C 3.74 g/m*3 4.62 C 0 km/h
695 21-10-2010 22:00:00 3.84 C 3.84 g/m*3 3.84 C 0 km/h
696 21-10-2010 23:00:00 3.14 C 3.89 g/m*3 3.14 C 0 km/h
697 22-10-2010 00:00:00 2.38 C 4.06 g/m*3 2.38 C 0 km/h
698 22-10-2010 01:00:00 1.74 C 4.11 g/m*3 1.74 C 0 km/h
699 22-10-2010 02:00:00 2.12 C 4.09 g/m*3 2.12 C 0 km/h
700 22-10-2010 03:00:00 2.16 C 4.08 g/m*3 2.16 C 0 km/h
Sensor: Nr:Datum:Temp:Abs-Feuchte:Windchill:Wind:
Aussen-T/F 701 22-10-2010 04:00:00 1.48 C 4.09 g/m*3 1.48 C 0 km/h
702 22-10-2010 05:00:00 1.38 C 4.11 g/m*3 1.38 C 0 km/h
703 22-10-2010 06:00:00 1.66 C 4.06 g/m*3 1.66 C 0 km/h
704 22-10-2010 07:00:00 0.94 C 3.98 g/m*3 0.94 C 0 km/h
705 22-10-2010 08:00:00 1.28 C 4.04 g/m*3 1.28 C 0 km/h
706 22-10-2010 09:00:00 2.06 C 4.3 g/m*3 2.06 C 0 km/h
707 22-10-2010 10:00:00 4.3 C 4.23 g/m*3 4.3 C 0 km/h
708 22-10-2010 11:00:00 5.36 C 3.94 g/m*3 5.36 C 0 km/h
709 22-10-2010 12:00:00 6.56 C 3.9 g/m*3 6.56 C 0 km/h
710 22-10-2010 13:00:00 7.18 C 3.89 g/m*3 7.18 C 0 km/h
711 22-10-2010 14:00:00 7.36 C 3.87 g/m*3 7.36 C 0 km/h
712 22-10-2010 15:00:00 7.22 C 3.82 g/m*3 7.22 C 0 km/h
713 22-10-2010 16:00:00 7.42 C 4.33 g/m*3 7.42 C 0 km/h
714 22-10-2010 17:00:00 7.22 C 4.28 g/m*3 7.22 C 0 km/h
715 22-10-2010 18:00:00 6.18 C 4.1 g/m*3 6.18 C 0 km/h
716 22-10-2010 19:00:00 6.2 C 3.69 g/m*3 6.2 C 0 km/h
717 22-10-2010 20:00:00 6.02 C 3.82 g/m*3 6.02 C 0 km/h
718 22-10-2010 21:00:00 5.72 C 3.9 g/m*3 5.72 C 0 km/h
719 22-10-2010 22:00:00 4.14 C 4.09 g/m*3 4.14 C 0 km/h
720 22-10-2010 23:00:00 2.76 C 4.31 g/m*3 2.76 C 0 km/h

Maximal/Minimal-Werte vom 23.09.2010 - 22.10.2010

Sensor Min Max Avg
Temp
(Aussen-T/F)
0.6 °C
22-10-2010  07:46:02
26.1 °C
03-10-2010  17:05:02
11.38 °C
Abs-Feuchte
(Aussen-T/F)
3.55 g/m*3
21-10-2010  17:00:00
13.01 g/m*3
05-10-2010  11:00:00
7.76 g/m*3
Windchill
(Aussen-T/F)
0.94 C
22-10-2010  07:00:00
25.22 C
03-10-2010  17:00:00
11.36 C

Die Daten stammen von einer Davis Vantage Pro 2 Wetter-Station und werden unter Linux mit der Software wview2wettercgi und aufbereitet. Alle Angaben erfolgen ohne Gewähr für ihre Vollständigkeit oder Richtigkeit.
Kontakt: Rainer Krienke krienke@uni-koblenz.de . Meine Webseiten an der Uni Koblenz oder privat.
Version: $Revision: 0.78 $